SCP
1 1 1 0 0 1 1 1 1 1 1 0 0 0 0 0 0 0 0 0 0 0 0 0 1 1 1 1 1 1 1 1 1 2 1 1 0 0
1 1 0 0 0 0 1 1 1 1 1 1 0 0 0 0 0 0 0 0 0 0 0 0 0 0 1 1 1 1 1 1 1 1 1 0 0 0
1 0 0 0 0 0 0 1 1 1 1 1 0 0 0 0 0 0 0 0 0 0 0 0 0 0 0 0 0 0 1 1 1 1 1 0 0 0
0 0 0 0 0 0 0 1 1 1 1 1 0 0 0 0 0 0 0 0 0 0 0 0 0 0 0 0 0 0 0 0 0 0 0 0 0 0
0 0 0 0 0 0 0 1 1 1 1 1 0 0 0 0 0 0 0 0 0 0 0 0 0 0 0 0 0 0 0 0 0 0 0 0 0 0
0 0 0 0 0 0 1 1 1 1 1 1 0 0 0 0 0 0 0 0 0 0 0 0 0 0 0 0 0 0 0 0 0 0 0 0 0 0
0 0 0 0 0 0 0 0 1 1 1 1 0 0 0 0 0 0 0 0 0 0 0 0 0 0 0 0 0 0 0 0 0 0 0 0 0 0
0 0 0 0 0 0 0 0 0 1 1 1 0 0 0 0 0 0 0 0 0 0 0 0 0 0 0 0 0 0 0 0 0 0 0 0 0 0
0 0 0 0 0 0 0 0 0 0 0 0 0 0 0 0 0 0 0 0 0 0 0 0 0 0 0 0 0 0 0 0 0 0 0 0 0 0
0 0 0 0 0 0 0 0 0 0 0 0 0 0 0 0 0 0 0 0 0 0 0 0 0 0 0 0 0 0 0 0 0 0 0 0 0 0
0 0 0 0 0 0 0 0 0 0 0 0 0 0 0 0 0 0 0 0 0 0 0 0 0 0 0 0 0 0 0 0 0 0 0 0 0 0
0 0 0 0 0 0 0 0 0 0 0 0 0 0 0 0 0 0 0 0 0 0 0 0 0 0 0 0 0 0 0 0 0 0 0 0 0 0
0 0 0 0 0 0 0 0 0 0 0 0 0 0 0 0 0 0 0 0 0 0 0 0 0 0 0 0 0 0 0 0 0 0 0 0 0 0
0 0 0 0 0 0 0 0 0 0 0 0 0 0 0 0 0 0 0 0 0 0 0 0 0 0 0 0 0 0 0 0 0 0 0 0 0 0
0 0 0 0 0 0 0 0 0 0 0 0 0 0 0 0 0 0 0 0 0 0 0 0 0 0 0 0 0 0 0 0 0 0 0 0 0 0
0 0 0 0 0 0 0 0 0 0 0 0 0 0 0 0 0 0 0 0 0 0 0 0 0 0 0 0 0 0 0 0 0 0 0 0 0 0
0 0 0 0 0 0 0 0 0 0 0 0 0 0 0 0 0 0 0 0 0 0 0 0 0 0 0 0 0 0 0 0 0 0 0 0 0 0
0 0 0 0 0 0 0 0 0 0 0 0 0 0 0 0 0 0 0 0 0 0 0 0 0 0 0 0 0 0 0 0 0 0 0 0 0 0
0 0 0 0 0 0 0 0 0 0 0 0 0 0 0 0 0 0 0 0 0 0 0 0 0 0 0 0 0 0 0 0 0 0 0 0 0 0
0 0 0 0 0 0 0 0 0 0 0 0 0 0 0 0 0 0 0 0 0 0 0 0 0 0 0 0 0 0 0 0 0 0 0 0 0 0
0 0 0 0 0 0 0 0 0 0 0 0 0 0 0 0 0 0 0 0 0 0 0 0 0 0 0 0 0 0 0 0 0 0 0 0 0 0
0 0 0 0 0 0 0 0 0 0 0 0 0 0 0 0 0 0 0 0 0 0 0 0 0 0 0 0 0 0 0 0 0 0 0 0 0 0
0 0 0 0 0 0 0 0 0 0 0 0 0 0 0 0 0 0 0 0 0 0 0 0 0 0 0 0 0 0 0 0 0 0 0 0 0 0
Wind_Speed
11 11 10 9 8 7 6 6 7 8 9 8 5 7 6 6 7 8 9 11 13 14 13 12 10 10 9 9 8 7 7 7 7 6 6 5 5 5
7 9 9 7 7 6 6 6 7 7 7 5 4 4 6 5 7 8 9 9 12 13 13 12 11 11 10 10 9 8 8 8 8 7 6 5 5 5
6 8 9 8 6 6 5 6 6 6 7 4 2 3 6 7 6 7 6 7 7 13 14 13 13 12 11 10 10 10 9 9 8 8 7 6 5 5
7 7 8 6 8 6 6 7 6 6 6 6 4 4 7 8 7 7 6 6 7 10 13 14 14 14 13 12 11 11 10 9 8 8 7 6 5 6
5 6 6 6 8 6 7 7 6 5 5 5 5 4 4 4 5 6 6 6 6 8 12 14 15 15 14 14 13 12 12 10 10 9 7 6 6 6
4 5 5 6 6 6 6 6 6 6 6 6 5 4 4 4 4 5 6 6 6 6 9 10 13 15 15 15 14 13 12 12 11 10 8 7 6 6
4 5 5 5 6 6 5 6 6 6 6 6 5 5 5 5 6 6 6 5 6 5 6 6 7 7 9 13 14 13 13 13 12 11 10 8 7 6
4 4 4 5 6 7 8 8 8 8 7 7 6 7 8 7 6 6 6 5 6 6 6 6 6 7 7 7 11 14 14 13 13 11 10 9 7 7
5 5 4 4 5 6 7 9 10 11 11 8 9 9 9 8 7 8 8 8 7 5 6 6 6 8 6 8 13 15 15 14 13 12 10 9 8 7
5 6 6 5 4 6 6 7 8 8 9 8 9 9 8 7 8 8 8 6 4 3 6 6 5 6 5 6 13 16 15 15 13 12 11 10 8 7
6 6 7 7 7 7 7 7 8 7 7 10 11 11 11 11 9 5 5 6 5 5 5 4 4 3 3 5 8 14 15 15 14 13 12 10 8 6
6 6 7 10 10 9 7 7 8 8 7 7 8 8 9 10 12 10 8 7 5 5 6 6 4 4 3 3 4 6 9 13 14 13 12 10 8 5
6 6 6 13 13 12 10 7 9 9 8 7 7 6 6 6 6 6 6 6 6 5 6 6 4 5 4 3 4 5 6 6 7 8 10 11 10 7
7 7 8 13 14 14 10 10 11 9 5 5 5 6 5 5 5 5 5 5 5 5 6 7 4 5 5 4 4 4 4 5 5 5 5 9 9 9
7 11 13 14 13 10 9 10 9 5 4 5 5 6 5 4 3 3 3 2 1 1 4 4 4 5 5 4 5 5 5 5 5 5 5 5 5 5
8 10 13 11 9 9 8 6 5 5 5 5 5 5 4 3 3 3 3 3 2 1 1 2 4 5 4 3 4 5 6 6 6 6 5 4 4 4
10 7 6 6 6 5 5 5 5 5 5 5 5 5 4 4 4 3 3 3 3 3 3 2 3 3 2 3 4 5 6 5 5 6 5 5 4 4
9 6 6 6 6 6 6 6 6 6 5 5 5 5 4 4 4 3 3 3 4 4 4 4 5 4 2 1 1 5 5 4 5 6 5 5 5 4
6 6 6 6 6 6 6 6 6 6 6 5 5 5 4 4 4 4 4 4 4 4 4 5 6 6 6 5 3 3 5 5 6 6 5 4 4 4
5 6 6 7 7 7 7 6 6 6 6 6 5 5 4 4 4 4 4 4 4 4 4 5 6 6 6 5 4 3 5 5 6 6 5 3 2 3
6 6 7 7 7 7 7 7 7 7 7 6 5 5 5 4 4 4 4 5 5 4 5 5 4 5 4 5 5 4 3 3 3 4 6 5 4 4
7 7 7 7 7 7 7 7 7 7 7 6 5 5 5 4 5 5 4 4 4 4 4 3 6 5 4 5 5 6 6 5 5 5 4 2 3 5
7 8 8 8 7 7 7 8 8 7 6 6 5 5 5 4 4 4 4 4 3 4 4 5 5 4 4 5 6 6 9 8 6 5 3 3 3 4
Wind_Direction
219 220 222 223 224 222 221 221 225 238 238 231 220 210 211 216 208 216 224 215 215 221 225 226 226 223 224 228 231 230 234 237 235 235 244 261 274 287
220 222 223 223 225 221 220 227 231 238 245 228 223 211 206 215 210 220 226 218 217 218 220 222 221 218 219 223 221 224 226 224 224 231 241 251 268 286
221 224 226 222 222 221 219 223 227 230 243 242 230 214 208 214 212 218 219 220 220 218 220 219 218 216 218 217 218 220 219 217 221 231 240 245 262 279
228 228 230 225 225 225 222 226 228 227 233 240 233 220 222 218 216 217 217 218 222 217 219 221 220 216 215 214 215 217 216 215 221 230 234 242 257 272
240 235 237 232 229 229 227 228 230 232 233 235 236 229 227 213 217 223 224 224 224 219 219 222 221 219 217 216 216 216 212 211 217 222 226 237 254 272
257 247 243 238 237 238 236 235 234 232 233 232 230 226 225 211 213 220 227 224 226 221 223 223 222 220 219 219 219 215 209 210 214 218 222 230 243 262
290 263 250 246 247 244 242 240 237 235 235 236 235 233 225 209 216 216 225 228 233 221 223 220 216 219 215 217 216 212 208 210 212 215 219 225 233 249
326 302 274 251 250 247 245 244 240 237 239 239 239 238 238 231 230 222 221 223 235 207 213 224 212 219 213 212 211 208 207 211 213 214 217 223 231 243
338 333 309 290 279 267 257 247 241 240 239 242 247 244 243 234 229 228 225 227 235 205 198 222 212 224 213 211 207 207 207 208 211 212 215 221 228 238
336 330 322 308 297 293 280 267 260 252 247 245 248 250 250 243 234 234 237 242 261 221 196 216 204 218 211 211 207 204 204 207 209 210 211 214 221 233
338 333 329 317 320 313 289 276 273 271 263 261 262 261 255 245 237 231 222 223 239 226 204 205 190 193 203 213 206 203 205 206 208 209 208 208 211 223
331 328 331 330 321 315 295 285 279 281 284 281 273 263 253 239 228 224 218 220 228 224 195 189 181 167 193 206 199 196 202 206 207 207 205 205 205 216
325 324 326 332 323 311 302 287 284 290 280 275 272 270 263 249 237 235 227 221 221 225 184 179 180 179 178 173 187 195 196 193 194 199 202 202 203 209
320 319 320 324 321 314 306 300 298 296 283 277 272 266 260 255 249 246 241 240 235 225 190 178 179 180 172 172 181 179 187 186 184 188 189 194 202 207
316 316 315 317 318 315 315 313 308 296 284 276 273 275 274 268 263 256 246 223 217 213 190 188 181 176 180 178 168 168 170 182 186 184 182 186 189 192
316 314 313 312 310 309 314 317 315 304 295 286 286 285 284 270 253 245 229 202 207 212 163 172 178 175 179 172 168 174 172 172 177 182 178 182 187 195
318 312 311 315 317 318 319 321 318 312 305 299 292 287 282 274 262 245 232 220 219 209 187 158 135 121 122 154 173 177 171 167 170 168 173 180 189 194
320 311 311 313 314 314 312 313 314 311 307 302 294 286 279 273 268 253 235 227 222 210 193 172 155 142 129 52 186 173 170 164 160 167 173 177 185 189
321 316 314 312 310 309 307 306 306 306 304 298 293 289 284 276 263 252 241 233 225 212 191 178 180 179 186 191 178 190 173 159 158 166 176 177 178 176
325 319 315 313 310 307 306 304 303 303 298 294 290 286 281 275 265 253 241 234 223 208 193 187 193 196 197 176 151 156 175 163 163 165 160 145 114 116
324 320 316 313 311 309 306 303 301 299 295 291 287 283 279 272 266 260 249 228 219 210 201 196 183 156 123 119 124 130 137 142 132 149 151 149 151 163
320 317 314 312 311 309 307 305 303 301 297 289 287 284 280 274 267 261 252 235 220 208 196 165 146 151 163 170 157 143 137 132 122 116 104 103 158 177
319 315 313 312 310 309 308 307 303 300 299 294 289 286 283 279 276 267 256 241 216 191 171 158 154 157 159 157 150 143 143 143 140 136 119 98 84 86